Home > Weather > Detmold > Past weeks

Flag for Germany Weather for the Past 2 Weeks in Detmold, North Rhine-Westphalia, Germany

Now
41 °F

Scattered clouds.


Feels Like: 38 °F
Forecast: 41 / 60 °F
Wind: 5 mph from West

Location: Paderborn / Lippstadt

Current Time: Apr 30, 2016 at 8:10:36 AM

Latest Report: Apr 30, 2016 at 7:20 AM


Visibility: N/A

Pressure: 30.01 "Hg

Humidity: 100%

Dew Point: 41 °F

Location of DetmoldLocation

Historic Weather in Detmold — Graph

°F

Detmold Temperature Yesterday

Maximum temperature yesterday: 55 °F (at 2:50 PM)
Minimum temperature yesterday: 37 °F (at 12:20 AM)
Average temperature yesterday: 47 °F

High & Low Weather Summary for the Past Weeks

 TemperatureHumidityPressure
High63 °F (Apr 21, 2:50 PM)100% (Apr 15, 7:20 AM)30.45 "Hg (Apr 15, 7:20 AM)
Low32 °F (Apr 24, 4:20 PM)30% (Apr 21, 3:50 PM)29.45 "Hg (Apr 26, 10:50 AM)
Average44 °F75%29.91 "Hg
* Reported Apr 15 6:50 AM — Apr 30 6:20 AM, Detmold, Weather by CustomWeather, © 2016

Note: Actual official high and low records may vary slightly from our data, if they occured in-between our weather recording intervals... More about our weather records

Advertising

Detmold Weather History for the Previous 24 Hours

Scroll right to see more
 ConditionsComfort  
Time TempWeatherWind HumidityBarometerVisibility
6:20 AM
Sat, Apr 30
37 °FPassing clouds.8 mph100%30.01 "HgN/A
5:50 AM37 °FPassing clouds.2 mph100%30.01 "HgN/A
5:20 AM37 °FPassing clouds.7 mph100%30.01 "HgN/A
4:50 AM37 °FClear.7 mph100%30.01 "Hg10 mi
4:20 AM39 °FClear.8 mph100%29.98 "Hg10 mi
3:50 AM39 °FClear.6 mph100%30.01 "Hg10 mi
2:50 AM37 °FClear.2 mph100%30.01 "Hg10 mi
1:50 AM37 °FClear.3 mph100%30.01 "Hg10 mi
1:20 AM39 °FClear.3 mph100%30.01 "Hg10 mi
12:50 AM41 °FClear.1 mph93%30.01 "Hg10 mi
12:20 AM39 °FPassing clouds.3 mph100%30.01 "HgN/A
11:50 PM
Fri, Apr 29
43 °FClear.3 mph93%30.01 "Hg10 mi
11:20 PM43 °FClear.1 mph100%30.01 "Hg10 mi
10:50 PM43 °FClear.1 mph93%30.01 "Hg10 mi
10:20 PM45 °FPassing clouds.3 mph93%30.01 "HgN/A
9:50 PM46 °FPassing clouds.6 mph87%30.01 "HgN/A
9:20 PM50 °FPassing clouds.6 mph50%30.01 "HgN/A
8:50 PM50 °FSunny.9 mph43%29.98 "Hg10 mi
8:20 PM52 °FSunny.9 mph41%29.98 "Hg10 mi
7:50 PM52 °FSunny.9 mph41%29.98 "Hg10 mi
7:20 PM52 °FSunny.14 mph41%29.98 "Hg10 mi
6:50 PM54 °FSunny.14 mph38%29.95 "Hg10 mi
6:20 PM54 °FSunny.16 mph41%29.98 "Hg10 mi
5:50 PM54 °FPassing clouds.17 mph41%29.95 "HgN/A
5:20 PM54 °FSunny.15 mph38%29.98 "Hg10 mi
4:50 PM54 °FSunny.20 mph38%29.95 "Hg10 mi
4:20 PM54 °FSunny.16 mph38%29.95 "Hg10 mi
3:50 PM55 °FPassing clouds.20 mph38%29.95 "HgN/A
3:20 PM55 °FSunny.14 mph38%29.95 "Hg10 mi
2:50 PM55 °FSunny.16 mph38%29.95 "Hg10 mi
2:20 PM54 °FSunny.16 mph41%29.95 "Hg10 mi
1:50 PM52 °FSunny.18 mph41%29.95 "Hg10 mi
1:20 PM52 °FSunny.20 mph41%29.95 "Hg10 mi
12:50 PM54 °FSunny.20 mph38%29.95 "Hg10 mi
12:20 PM54 °FPassing clouds.18 mph44%29.95 "HgN/A
11:50 AM52 °FPassing clouds.21 mph44%29.95 "HgN/A
11:20 AM52 °FPassing clouds.18 mph41%29.95 "HgN/A
10:50 AM50 °FSunny.18 mph43%29.95 "Hg10 mi
9:50 AM48 °FPassing clouds.13 mph54%29.95 "HgN/A
9:20 AM48 °FSunny.12 mph54%29.95 "Hg10 mi
8:50 AM46 °FSunny.13 mph57%29.95 "Hg10 mi
8:20 AM43 °FSunny.13 mph66%29.95 "Hg10 mi
Weather by CustomWeather, © 2016

See weather overviewHow to use our weather pages